IU1DOF-3 Weather Reports


Display with metric or nautical units.
time (UTC)temp
F
wind
direction
speed
MPH
gust
MPH
rain 1hr
in
rain 24hr
in
rain mn
in
humidity
%
barometer
mb
20260905131525 88 283 0.0 1.0 0.00 0.00 0.00 39 1017.2
20260905130500 88 302 2.0 4.0 0.00 0.00 0.00 40 1017.3
20260905125440 87 303 6.0 8.0 0.00 0.00 0.00 41 1017.4
20260905124427 86 293 3.0 3.0 0.00 0.00 0.00 42 1017.4
20260905123403 88 285 1.0 1.0 0.00 0.00 0.00 43 1017.3
20260905122339 88 302 0.0 1.0 0.00 0.00 0.00 37 1017.5
20260905121315 86 299 0.0 1.0 0.00 0.00 0.00 40 1017.5
20260905120252 86 242 5.0 6.0 0.00 0.00 0.00 43 1017.5
20260905115241 86 246 2.0 3.0 0.00 0.00 0.00 43 1017.6
20260905114220 85 248 2.0 4.0 0.00 0.00 0.00 41 1017.5
20260905113157 85 250 2.0 4.0 0.00 0.00 0.00 44 1017.7
20260905112141 85 294 2.0 3.0 0.00 0.00 0.00 46 1017.7
20260905111124 85 271 2.0 4.0 0.00 0.00 0.00 46 1017.8
20260905110059 84 227 4.0 8.0 0.00 0.00 0.00 52 1017.7
20260905105041 84 265 0.0 1.0 0.00 0.00 0.00 57 1018.1
20260905104027 82 235 3.0 6.0 0.00 0.00 0.00 58 1017.7
20260905103003 82 275 2.0 4.0 0.00 0.00 0.00 59 1017.8
20260905101939 82 259 1.0 2.0 0.00 0.00 0.00 59 1018.0
20260905100916 81 248 6.0 8.0 0.00 0.00 0.00 57 1017.9
20260905095851 81 245 2.0 3.0 0.00 0.00 0.00 56 1017.9
20260905094840 81 273 0.0 1.0 0.00 0.00 0.00 60 1017.8
20260905093819 80 273 0.0 1.0 0.00 0.00 0.00 57 1018.1
20260905092755 81 258 1.0 3.0 0.00 0.00 0.00 52 1017.9
20260905091747 80 246 0.0 1.0 0.00 0.00 0.00 57 1018.1
20260905090739 80 278 1.0 2.0 0.00 0.00 0.00 52 1018.0
20260905085731 80 279 0.0 0.0 0.00 0.00 0.00 53 1017.6
20260905084723 79 268 0.0 2.0 0.00 0.00 0.00 53 1017.8
20260905083700 78 277 0.0 0.0 0.00 0.00 0.00 53 1017.7
20260905082651 77 278 0.0 0.0 0.00 0.00 0.00 55 1017.6
20260905081640 76 246 2.0 2.0 0.00 0.00 0.00 53 1017.8
20260905080621 75 279 0.0 0.0 0.00 0.00 0.00 70 1017.7
20260905075555 73 211 2.0 3.0 0.00 0.00 0.00 71 1017.9
20260905074532 74 281 2.0 2.0 0.00 0.00 0.00 69 1018.0
20260905073508 70 292 1.0 1.0 0.00 0.00 0.00 74 1017.7
20260905072459 69 288 1.0 1.0 0.00 0.00 0.00 75 1017.8
20260905071440 70 281 0.0 0.0 0.00 0.00 0.00 71 1017.8
20260905070428 68 295 1.0 1.0 0.00 0.00 0.00 72 1017.9
20260905065404 67 291 2.0 2.0 0.00 0.00 0.00 71 1017.7
20260905064341 66 285 2.0 2.0 0.00 0.00 0.00 72 1017.7
20260905063316 64 295 1.0 2.0 0.00 0.00 0.00 74 1017.5
20260905062307 63 305 2.0 2.0 0.00 0.00 0.00 77 1017.6
20260905061259 65 294 1.0 1.0 0.00 0.00 0.00 73 1017.4
20260905060235 63 304 1.0 1.0 0.00 0.00 0.00 76 1017.5
20260905055212 61 295 0.0 0.0 0.00 0.00 0.00 79 1017.4
20260905054203 62 310 0.0 0.0 0.00 0.00 0.00 75 1017.5
20260905053155 61 287 0.0 0.0 0.00 0.00 0.00 78 1017.5
20260905052140 61 308 1.0 2.0 0.00 0.00 0.00 77 1017.7
20260905051124 62 308 1.0 1.0 0.00 0.00 0.00 76 1017.4
20260905050101 61 299 2.0 2.0 0.00 0.00 0.00 78 1017.3
20260905045035 61 309 2.0 3.0 0.00 0.00 0.00 78 1017.5
20260905044027 60 310 2.0 2.0 0.00 0.00 0.00 81 1017.5
20260905043004 60 311 0.0 1.0 0.00 0.00 0.00 82 1017.2
20260905041940 61 281 0.0 0.0 0.00 0.00 0.00 79 1017.0
20260905040931 61 305 2.0 3.0 0.00 0.00 0.00 78 1017.2
20260905035923 60 306 1.0 1.0 0.00 0.00 0.00 81 1017.1
20260905034900 59 281 0.0 0.0 0.00 0.00 0.00 85 1017.4
20260905033840 59 320 0.0 0.0 0.00 0.00 0.00 86 1017.4
20260905032829 60 304 0.0 0.0 0.00 0.00 0.00 84 1017.3
20260905031804 60 305 2.0 3.0 0.00 0.00 0.00 82 1017.4
20260905030740 60 281 1.0 1.0 0.00 0.00 0.00 84 1017.4
20260905025716 59 317 1.0 1.0 0.00 0.00 0.00 85 1017.1
20260905024652 61 280 0.0 0.0 0.00 0.00 0.00 82 1017.0
20260905023640 61 297 1.0 2.0 0.00 0.00 0.00 80 1017.3
20260905022620 61 293 0.0 0.0 0.00 0.00 0.00 82 1017.3
20260905021558 61 308 1.0 1.0 0.00 0.00 0.00 81 1017.6
20260905020540 61 308 0.0 0.0 0.00 0.00 0.00 83 1017.4
20260905015524 61 308 0.0 0.0 0.00 0.00 0.00 83 1017.4
20260905014459 61 303 0.0 1.0 0.00 0.00 0.00 80 1017.8
20260905013443 61 293 2.0 2.0 0.00 0.00 0.00 82 1017.7
20260905012428 61 304 0.0 0.0 0.00 0.00 0.00 83 1017.9
20260905011404 61 284 0.0 0.0 0.00 0.00 0.00 84 1017.8
20260905010341 61 298 0.0 0.0 0.00 0.00 0.00 84 1018.1
20260905005332 61 309 0.0 0.0 0.00 0.00 0.00 84 1017.8
20260905004323 61 299 0.0 0.0 0.00 0.00 0.00 85 1018.2
20260905003300 61 304 0.0 0.0 0.00 0.00 0.00 83 1018.1
20260905002204 62 297 1.0 1.0 0.00 0.00 0.00 84 1018.0
20260905001139 63 303 1.0 2.0 0.00 0.00 0.00 83 1018.1
20260905000115 62 303 0.0 0.0 0.00 0.00 0.00 85 1018.1
20260904235051 62 295 1.0 1.0 0.00 0.00 0.00 85 1018.1
20260904234041 62 315 0.0 0.0 0.00 0.00 0.00 85 1018.2
20260904233021 63 303 0.0 0.0 0.00 0.00 0.00 87 1018.1
20260904231956 63 304 1.0 1.0 0.00 0.00 0.00 85 1017.9
20260904230941 63 304 2.0 2.0 0.00 0.00 0.00 84 1018.0
20260904225924 63 303 1.0 1.0 0.00 0.00 0.00 86 1018.2
20260904224900 64 303 0.0 0.0 0.00 0.00 0.00 86 1018.3
20260904223840 64 303 2.0 2.0 0.00 0.00 0.00 88 1018.3
20260904222828 64 303 1.0 2.0 0.00 0.00 0.00 87 1018.0
20260904221804 64 303 1.0 2.0 0.00 0.00 0.00 88 1018.2
20260904220741 65 303 0.0 1.0 0.00 0.00 0.00 87 1018.4
20260904215716 64 308 0.0 1.0 0.00 0.00 0.00 88 1018.4
20260904214707 65 303 1.0 2.0 0.00 0.00 0.00 87 1018.3
20260904213659 65 303 2.0 2.0 0.00 0.00 0.00 87 1018.1
20260904212642 65 304 0.0 0.0 0.00 0.00 0.00 87 1018.3
20260904211628 65 304 2.0 2.0 0.00 0.00 0.00 88 1018.1
20260904210604 66 303 0.0 0.0 0.00 0.00 0.00 87 1018.2
20260904205540 66 297 0.0 0.0 0.00 0.00 0.00 87 1018.3
20260904204516 67 304 2.0 3.0 0.00 0.00 0.00 85 1018.6
20260904203507 67 304 1.0 1.0 0.00 0.00 0.00 85 1018.4
20260904202444 67 304 2.0 2.0 0.00 0.00 0.00 84 1018.4
20260904201435 67 304 2.0 2.0 0.00 0.00 0.00 84 1018.6
20260904200412 68 304 1.0 1.0 0.00 0.00 0.00 84 1018.5
20260904195403 68 302 2.0 2.0 0.00 0.00 0.00 84 1018.3
20260904194340 68 297 1.0 2.0 0.00 0.00 0.00 84 1018.3
20260904193316 68 304 2.0 3.0 0.00 0.00 0.00 83 1018.2
20260904192252 68 304 1.0 2.0 0.00 0.00 0.00 83 1018.1
20260904191240 68 282 1.0 2.0 0.00 0.00 0.00 83 1018.1
20260904190221 69 304 2.0 2.0 0.00 0.00 0.00 82 1018.2
20260904185157 69 304 2.0 3.0 0.00 0.00 0.00 81 1018.0
20260904184141 70 297 1.0 2.0 0.00 0.00 0.00 81 1017.9
20260904183124 70 304 2.0 3.0 0.00 0.00 0.00 81 1017.8
20260904182101 70 297 2.0 2.0 0.00 0.00 0.00 82 1017.5
20260904181041 71 303 2.0 2.0 0.00 0.00 0.00 81 1017.6
20260904180029 71 309 0.0 1.0 0.00 0.00 0.00 81 1017.5
20260904175004 72 304 2.0 3.0 0.00 0.00 0.00 78 1017.4
20260904173941 72 297 0.0 0.0 0.00 0.00 0.00 79 1017.2
20260904172916 73 306 3.0 3.0 0.00 0.00 0.00 78 1017.2
20260904171853 74 308 3.0 4.0 0.00 0.00 0.00 76 1017.2
20260904170841 74 311 3.0 4.0 0.00 0.00 0.00 76 1017.1
20260904165822 75 311 3.0 3.0 0.00 0.00 0.00 75 1017.3
20260904164758 76 312 3.0 3.0 0.00 0.00 0.00 73 1017.2
20260904163742 77 306 2.0 3.0 0.00 0.00 0.00 71 1017.4
20260904162724 78 298 2.0 3.0 0.00 0.00 0.00 70 1017.2
20260904161701 77 313 2.0 3.0 0.00 0.00 0.00 70 1017.5
20260904160642 79 294 2.0 3.0 0.00 0.00 0.00 68 1017.3
20260904155628 79 298 4.0 4.0 0.00 0.00 0.00 68 1017.2
20260904154605 80 289 2.0 3.0 0.00 0.00 0.00 65 1017.0
20260904153541 81 310 2.0 2.0 0.00 0.00 0.00 63 1017.6
20260904152516 82 303 1.0 2.0 0.00 0.00 0.00 59 1017.5
20260904151453 83 285 1.0 3.0 0.00 0.00 0.00 56 1017.5
20260904150441 83 308 3.0 4.0 0.00 0.00 0.00 56 1017.4
20260904145421 84 283 2.0 3.0 0.00 0.00 0.00 56 1017.5
20260904144357 84 286 2.0 3.0 0.00 0.00 0.00 54 1017.5
20260904143340 85 285 2.0 4.0 0.00 0.00 0.00 54 1017.6
20260904142325 84 264 3.0 3.0 0.00 0.00 0.00 56 1017.5
20260904141300 84 283 2.0 4.0 0.00 0.00 0.00 57 1017.8
20260904140242 84 247 4.0 4.0 0.00 0.00 0.00 54 1017.4
20260904135228 84 252 0.0 2.0 0.00 0.00 0.00 55 1017.4
20260904134213 85 291 1.0 2.0 0.00 0.00 0.00 55 1017.6
20260904133140 85 245 2.0 4.0 0.00 0.00 0.00 54 1017.6